Regional Weather Roundup
Issued by NWS Portland, ME

Home | Current Version | Previous Version | Text Only | Print | Product List | Glossary On
Versions: 1 2 3 4 5 6 7 8 9 10 11 12 13 14 15 16 17 18 19 20 21 22 23 24 25 26 27 28 29 30 31 32 33 34 35 36 37 38 39 40 41 42 43 44 45 46 47 48 49 50
000
ASUS41 KGYX 051910
RWRGYX
WEATHER ROUNDUP FOR MAINE AND NEW HAMPSHIRE
NATIONAL WEATHER SERVICE GRAY ME
300 PM EDT THU MAY 05 2016

MEZ002-005-006-010-012-015-018-020-021-024-026-027-029-052000-
MAINE

CITY           SKY/WX    TMP DP  RH WIND       PRES   REMARKS
PORTLAND       CLOUDY    47  42  83 NE12      29.80F
SANFORD        CLOUDY    48  39  71 NE14      29.79S
BAR HARBOR     CLOUDY    45  40  82 NE15G23   29.81F
WISCASSET      CLOUDY    47  41  80 NE6       29.82S
ROCKLAND       CLOUDY    46  41  82 NE9G17    29.81S
FRYEBURG       CLOUDY    50  42  74 NE8       29.80F
LEWISTONAUBURN CLOUDY    46  39  76 NE12      29.80F
AUGUSTA        CLOUDY    45  40  82 N16G25    29.81F
WATERVILLE     CLOUDY    46  40  79 NE12G18   29.80F
BANGOR         CLOUDY    49  41  74 N17       29.85S
GREENVILLE       N/A     46  39  76 NE9       29.83F
MILLINOCKET    CLOUDY    48  38  68 NE15G22   29.89F
HOULTON        CLOUDY    47  38  71 NE15G22   29.89F
PRESQUE ISLE   CLOUDY    49  37  63 NE12      29.92S
FRENCHVILLE    CLOUDY    49  34  56 NE10      29.92F
CARIBOU        CLOUDY    50  36  58 NE7       29.91F
$$

NHZ002-005-008-009-011-012-014-052000-
NEW HAMPSHIRE

CITY           SKY/WX    TMP DP  RH WIND       PRES   REMARKS
PORTSMOUTH     CLOUDY    46  42  84 NE13      29.77F
ROCHESTER      CLOUDY    47  42  83 NE10G17   29.77F
NASHUA         CLOUDY    49  43  80 E8        29.77S
MANCHESTER     CLOUDY    49  42  77 NE9       29.76S
CONCORD        CLOUDY    51  42  71 NE9       29.78S
LACONIA        CLOUDY    50  41  71 NE10      29.78S
PLYMOUTH       CLOUDY    55  44  66 E5        29.76F
BERLIN         CLOUDY    52  40  63 N9        29.80F
WHITEFIELD     CLOUDY    54  42  64 E12G20    29.78F
JAFFREY        CLOUDY    48  42  80 VRB5      29.74F
KEENE          CLOUDY    52  43  71 NE12      29.76S
LEBANON        CLOUDY    56  44  64 N8        29.75F
MT WASHINGTON  FOG       34  34 100 N29         N/A  VSB 1/8
$$

VTZ005-007-008-052000-
VERMONT

CITY           SKY/WX    TMP DP  RH WIND       PRES   REMARKS
ST JOHNSBURY     N/A     59  41  51 MISG      29.76F
MONTPELIER     CLOUDY    55  42  61 N8        29.81F
BURLINGTON     PTSUNNY   60  42  51 N10G21    29.78F
$$

MAZ007-012-024-CTZ003-RIZ002-NYZ038-NYZ072-052000-
SOUTHERN NEW ENGLAND AND NY

CITY           SKY/WX    TMP DP  RH WIND       PRES   REMARKS
WORCESTER      CLOUDY    44  42  93 NE13G20   29.71F FOG
NANTUCKET      CLOUDY    45  44  97 N26G36    29.63F
PROVIDENCE     CLOUDY    46  41  82 N25G33    29.70F
HARTFORD       CLOUDY    53  42  66 NE16      29.70F
ALBANY         CLOUDY    58  44  60 N10       29.74S
NEW YORK CITY  CLOUDY    57  46  66 NE16      29.64F
$$

ANZ081-ANZ082-ANZ150-NHZ014-MEZ023>029-052000-
COASTAL MARINE OBSERVATIONS

STATION/POSITION TIME  TEMP    WIND        PRES    WAVE
                       AIR SEA DIR/SP/G            HT/PER
                 (UTC) (F)     (DEG/KT/KT) (MB)    (FT/S)
MOUNT DESERT ROC 1900   43      20/ 23/ 26 1008.1F
MATINICUS ROCK   1800   42      30/ 19/ 21 1008.3F
ISLE OF SHOALS   1800   44      40/ 17/ 19 1008.2F
CASHES LEDGE BUO 1850   43 44   30/ 25/ 31 1006.5F  10/ 8
GEORGES BANK BUO 1850   55 46              1001.4F   7/ 8
$$

.............KEY..............
   WCI - WIND CHILL
   TC  - TEMPERATURE IN CELSIUS
   VSB - VISIBILITY IN MILES
   HX  - HEAT INDEX
   FAIR- INDICATES FEW OR NO CLOUDS BELOW 12,000 FT, WITH NO
         SIGNIFICANT WEATHER AND/OR OBSTRUCTIONS TO VISIBILITY.





USA.gov is the U.S. government's official web portal to all federal, state and local government web resources and services.